Location: Unspecified
(0.0000°N, 0.0000°E)
Time: 11:35:47

XW-2B - Pass Details

Date: 12 December 2017
Orbit: 511 x 530 km, 97.5° (Epoch: 20 March)

Event Time Altitude Azimuth Distance (km) Brightness Sun altitude
Rises 05:14:10 0° 29° (NNE) 2,656 ? -9.1°
Reaches altitude 10° 05:16:28 10° 41° (NE) 1,769 ? -8.6°
Maximum altitude 05:19:48 29° 101° (E) 997 ? -7.8°
Drops below altitude 10° 05:23:06 10° 162° (SSE) 1,761 ? -7.0°
Sets 05:25:25 0° 173° (S) 2,658 ? -6.5°
